TimeCEST,TemperatureF,Dew PointF,Humidity,Sea Level PressureIn,VisibilityMPH,Wind Direction,Wind SpeedMPH,Gust SpeedMPH,PrecipitationIn,Events,Conditions,WindDirDegrees,DateUTC
12:50 AM,75.2,73.4,94,30.04,5.6,WSW,9.2,-,N/A,,Scattered Clouds,250,2012-10-01 22:50:00
1:50 AM,75.2,71.6,89,30.04,4.3,West,12.7,-,N/A,Rain,Light Rain,270,2012-10-01 23:50:00
2:50 AM,75.2,69.8,83,30.04,6.2,West,17.3,-,N/A,,Mostly Cloudy,280,2012-10-02 00:50:00
3:50 AM,73.4,68.0,83,30.04,6.2,WNW,15.0,-,N/A,,Scattered Clouds,290,2012-10-02 01:50:00
4:50 AM,73.4,66.2,78,30.01,6.2,WNW,10.4,-,N/A,,Scattered Clouds,300,2012-10-02 02:50:00
5:50 AM,73.4,66.2,78,30.01,6.2,WNW,11.5,-,N/A,,Partly Cloudy,290,2012-10-02 03:50:00
6:50 AM,71.6,66.2,83,30.01,6.2,WNW,9.2,-,N/A,,Partly Cloudy,300,2012-10-02 04:50:00
7:50 AM,73.4,68.0,83,30.04,6.2,West,5.8,-,N/A,,Scattered Clouds,280,2012-10-02 05:50:00
8:50 AM,73.4,66.2,78,30.04,6.2,WNW,10.4,-,N/A,,Scattered Clouds,290,2012-10-02 06:50:00
9:50 AM,75.2,68.0,78,30.06,6.2,WNW,11.5,-,N/A,,Partly Cloudy,290,2012-10-02 07:50:00
10:50 AM,77.0,66.2,69,30.06,6.2,West,13.8,-,N/A,,Partly Cloudy,270,2012-10-02 08:50:00
11:50 AM,77.0,66.2,69,30.06,6.2,West,12.7,-,N/A,,Scattered Clouds,270,2012-10-02 09:50:00
12:50 PM,77.0,66.2,69,30.06,6.2,West,13.8,-,N/A,,Scattered Clouds,280,2012-10-02 10:50:00
1:50 PM,78.8,66.2,65,30.06,6.2,West,16.1,-,N/A,,Partly Cloudy,270,2012-10-02 11:50:00
2:50 PM,77.0,66.2,69,30.06,6.2,West,17.3,-,N/A,,Partly Cloudy,270,2012-10-02 12:50:00
3:50 PM,77.0,68.0,74,30.06,6.2,West,12.7,-,N/A,,Scattered Clouds,270,2012-10-02 13:50:00
4:50 PM,77.0,68.0,74,30.04,6.2,West,16.1,-,N/A,,Partly Cloudy,270,2012-10-02 14:50:00
5:50 PM,75.2,66.2,73,30.06,6.2,WNW,15.0,-,N/A,,Partly Cloudy,290,2012-10-02 15:50:00
6:50 PM,73.4,64.4,73,30.06,6.2,West,17.3,-,N/A,,Partly Cloudy,280,2012-10-02 16:50:00
7:50 PM,73.4,64.4,73,30.06,6.2,WNW,9.2,-,N/A,,Scattered Clouds,290,2012-10-02 17:50:00
8:50 PM,71.6,62.6,73,30.09,6.2,West,13.8,-,N/A,,Scattered Clouds,280,2012-10-02 18:50:00
9:50 PM,71.6,62.6,73,30.09,6.2,West,9.2,-,N/A,,Partly Cloudy,280,2012-10-02 19:50:00
10:50 PM,71.6,62.6,73,30.09,6.2,WNW,5.8,-,N/A,,Partly Cloudy,300,2012-10-02 20:50:00
11:50 PM,71.6,62.6,73,30.09,6.2,WNW,11.5,-,N/A,,Partly Cloudy,300,2012-10-02 21:50:00